Theta_e
282 282 282 282 282 283 283 282 282 283 283 283 283 284 284 284 284 284 284 285 286 286 286 286 286 286 286 286 285 285 285 285 285 285 285 285 285 285 286 286 287 287 286 286 285 285 285 286 286 286 286 287 287 287 287 287 287 287 287 288 292 295 297 297 297 297 299 301 303 306 310 313 313 311
282 281 281 281 281 282 282 281 282 282 282 283 283 283 283 283 284 284 284 284 285 285 285 285 285 285 285 284 284 284 284 284 285 284 285 285 285 285 285 286 286 286 286 287 286 286 285 285 286 286 286 286 286 287 287 287 286 286 287 287 288 292 296 299 299 299 299 299 299 301 305 309 312 312
281 281 281 281 281 281 281 281 281 281 282 282 282 282 282 282 283 283 283 283 284 284 284 284 284 284 284 284 284 284 284 283 284 284 284 284 284 284 284 284 285 286 286 287 287 287 287 287 286 285 285 285 285 286 286 287 286 286 286 286 287 288 291 295 298 298 298 299 299 298 298 301 307 312
281 280 280 280 280 280 280 280 280 280 280 281 281 281 281 282 282 282 283 283 283 283 283 283 283 283 283 283 283 283 283 283 283 283 283 283 283 283 283 284 284 285 286 286 287 287 287 287 286 286 286 286 286 286 286 286 286 286 286 286 286 287 287 290 294 296 297 297 299 300 297 295 299 307
280 279 279 279 280 280 279 279 279 279 280 280 280 280 280 281 281 281 282 282 282 282 282 282 282 282 282 282 282 283 283 283 282 282 282 282 282 283 283 283 284 284 285 285 286 286 287 287 287 288 288 288 289 289 288 287 286 286 286 286 286 286 287 287 289 294 296 297 298 300 300 297 295 302
279 279 279 279 279 279 278 278 278 278 279 279 279 280 280 280 280 280 280 280 281 281 281 281 281 281 281 281 281 281 281 281 281 281 281 281 282 282 282 283 283 284 284 285 286 286 287 287 288 288 288 289 289 289 290 290 288 286 286 286 285 285 286 286 287 290 293 295 296 298 299 298 299 304
278 278 278 278 278 278 277 277 278 278 278 278 278 278 278 278 279 279 279 279 279 280 280 280 280 280 280 280 280 280 280 280 280 280 281 281 281 281 281 282 282 283 284 285 285 286 286 286 287 287 288 288 288 288 288 289 289 288 286 285 285 285 285 286 286 287 289 292 294 296 298 298 299 304
278 278 278 278 278 277 277 277 277 277 277 277 277 277 277 278 278 278 278 278 279 279 279 279 279 279 279 279 279 279 279 279 279 279 280 280 280 280 281 281 282 283 283 283 284 284 285 285 286 286 287 287 287 287 288 289 289 289 289 287 286 286 286 286 286 286 287 290 292 294 297 298 298 301
277 277 277 277 277 277 277 277 277 277 277 276 276 276 277 277 277 277 277 277 278 278 278 278 278 278 278 278 278 278 278 278 278 278 278 279 279 280 280 281 281 281 281 281 282 283 284 284 285 285 285 286 286 287 288 288 289 289 290 289 288 286 286 286 286 285 285 287 290 292 294 296 296 296
277 277 277 277 276 276 276 276 276 276 276 276 276 276 276 276 276 276 276 276 276 276 277 277 277 276 276 276 276 277 277 277 277 277 278 278 279 279 279 279 279 279 280 280 281 281 282 283 283 284 285 285 286 286 287 287 288 288 288 289 288 287 286 285 285 285 285 285 287 290 292 294 295 295
277 276 276 276 276 276 276 276 276 275 275 275 275 275 275 275 275 275 275 275 275 275 275 275 275 275 275 275 276 276 276 276 276 277 277 277 278 278 278 278 278 278 279 279 279 279 280 281 281 282 284 285 285 286 286 287 287 287 287 287 288 287 286 285 285 285 285 284 285 287 289 292 294 295
276 276 276 276 276 276 275 275 275 274 274 275 275 274 274 274 274 274 274 274 274 274 274 274 274 274 275 275 275 275 275 275 276 276 276 276 276 277 277 277 277 277 277 277 278 278 279 279 280 280 281 282 282 283 284 284 285 286 287 287 288 288 287 286 286 285 285 285 284 285 286 288 291 295
276 276 276 276 275 275 275 275 274 273 274 274 274 274 274 274 274 274 274 273 273 273 273 274 274 274 274 274 274 274 275 275 275 275 275 276 276 276 276 276 277 277 277 277 277 278 278 278 278 279 279 279 280 280 281 281 283 285 286 287 288 288 288 288 288 288 288 287 287 286 286 287 288 292
276 276 275 275 275 275 274 274 273 273 273 274 274 274 274 273 273 273 273 273 273 273 273 273 273 274 274 274 274 274 274 274 275 275 275 276 276 276 276 276 276 277 277 277 277 277 278 278 278 278 278 279 279 280 280 280 282 283 284 285 286 287 288 288 289 289 289 289 288 287 286 287 288 290
275 275 275 275 274 274 274 273 273 273 273 273 273 273 273 273 273 273 273 273 273 273 273 273 273 273 273 274 274 274 274 274 275 275 275 276 276 276 276 276 277 277 277 277 277 277 277 277 278 278 278 278 279 279 280 281 282 282 283 284 285 285 286 287 288 288 288 288 288 287 285 285 287 289
275 275 274 274 274 273 273 273 273 272 272 273 273 273 273 273 273 273 273 273 273 273 273 273 273 273 274 274 274 274 274 275 275 275 275 276 276 276 276 276 277 277 277 277 277 277 277 278 278 278 278 278 278 279 280 281 281 282 283 283 284 284 285 286 286 287 288 288 288 288 287 285 285 287
274 274 273 273 273 273 273 273 272 272 272 272 272 273 273 273 272 273 273 273 274 274 274 274 274 274 274 274 274 275 275 275 275 275 275 276 276 276 276 277 277 277 277 277 277 277 278 277 277 277 278 278 278 278 279 280 281 282 282 283 283 284 284 285 285 286 287 288 288 289 289 288 287 286
273 273 273 272 272 272 273 272 272 272 272 272 272 273 273 273 273 273 274 274 274 274 274 274 274 274 275 275 275 275 275 275 275 275 276 276 276 276 276 277 277 277 277 277 278 278 278 277 277 277 277 277 278 278 278 279 280 280 281 281 282 283 284 285 285 286 286 287 288 288 289 289 289 288
272 272 272 272 272 272 272 272 272 273 273 273 273 273 274 274 274 274 274 274 274 274 275 274 274 274 275 275 275 275 275 275 276 276 276 276 276 276 276 276 277 277 277 277 277 277 277 277 277 277 277 277 277 278 278 278 279 279 280 280 281 282 283 284 284 285 286 286 287 287 288 288 289 289
272 272 272 272 272 272 272 272 273 273 274 274 274 275 275 275 275 275 275 275 275 275 276 275 275 276 276 276 276 276 277 277 277 277 277 277 276 276 276 277 277 277 277 277 277 277 277 277 277 277 277 277 277 277 278 278 278 279 279 280 280 282 283 283 284 285 285 286 286 287 288 288 288 289
272 272 272 272 272 272 272 272 273 274 275 275 275 276 276 276 276 276 276 276 276 276 276 276 276 277 277 277 277 277 277 278 278 278 278 277 277 277 277 277 277 277 277 277 277 277 277 277 277 277 277 277 277 277 277 277 278 278 279 279 280 281 281 282 282 284 285 286 286 286 287 287 288 288
272 272 272 272 272 272 273 273 274 275 275 276 276 276 276 276 277 277 277 277 276 276 277 276 276 277 277 277 277 277 277 277 277 277 277 277 277 277 277 277 277 277 277 277 276 277 277 277 277 277 277 277 277 277 277 277 277 278 278 278 278 279 279 280 281 282 283 285 286 287 287 287 287 288
272 272 272 273 273 273 274 274 275 275 276 276 276 276 276 276 276 276 276 276 276 276 276 276 276 276 276 276 276 276 276 276 276 276 277 277 277 277 277 277 277 277 276 276 276 276 277 277 277 277 277 276 277 277 277 277 277 277 277 277 277 278 279 280 280 280 281 283 284 285 286 287 287 287
272 273 273 273 274 274 275 275 275 276 276 276 276 275 275 275 275 275 275 275 274 274 274 274 274 274 274 274 274 274 275 275 275 275 276 276 276 276 277 277 276 276 276 276 276 276 276 276 276 276 276 276 276 277 276 276 276 276 276 276 277 277 278 278 278 278 279 281 282 284 285 286 287 287
273 273 273 274 274 274 275 275 275 275 275 275 274 274 274 274 274 274 274 273 272 272 272 272 272 272 272 272 273 273 273 274 274 275 275 275 275 276 276 276 276 276 276 276 276 276 276 276 276 276 276 276 276 276 276 275 275 275 276 276 276 277 277 277 277 277 278 279 281 282 283 285 286 286
273 274 274 274 274 274 274 274 274 274 274 273 273 272 272 273 273 273 272 271 270 270 270 270 270 270 271 271 271 272 272 273 273 273 274 274 274 274 275 275 275 275 275 275 275 275 275 275 275 275 275 275 275 275 275 275 275 275 275 275 276 276 276 276 277 277 278 278 279 281 282 283 285 285
273 274 274 274 274 274 274 273 273 273 272 272 271 271 272 272 271 270 269 269 269 269 269 269 269 269 270 270 270 271 271 271 272 272 272 273 273 273 274 274 274 274 274 274 274 274 274 274 274 275 275 275 275 275 275 275 275 275 275 275 275 275 276 276 276 277 277 278 278 279 280 282 283 285
274 274 274 274 274 273 273 272 271 271 271 270 270 270 270 270 269 268 267 267 267 267 267 268 268 268 268 269 269 269 270 270 270 271 271 271 272 272 272 272 273 273 273 273 274 274 274 274 274 274 274 275 275 275 275 275 275 275 275 275 275 275 275 276 276 276 277 277 277 278 279 280 282 284
274 274 274 273 273 272 271 270 270 270 270 269 269 269 269 268 267 266 266 266 266 266 266 267 267 267 267 267 268 268 268 269 269 269 270 270 271 271 272 272 272 273 273 274 274 274 274 274 274 274 275 275 275 275 275 275 275 275 275 275 275 275 275 276 276 276 276 277 277 277 278 280 281 284
274 274 273 272 271 270 270 269 269 269 269 268 268 268 267 266 266 266 266 266 266 266 266 266 266 266 266 266 267 267 267 268 268 269 269 270 270 271 271 272 272 273 273 274 274 274 275 275 275 275 275 275 275 275 275 275 275 275 275 275 275 275 275 276 276 276 276 277 277 278 278 279 281 282
273 272 271 271 270 269 269 269 269 269 268 267 267 266 266 266 266 266 266 266 266 266 266 266 266 266 266 266 266 266 267 267 268 268 269 269 270 270 271 272 272 273 273 273 274 275 275 275 275 275 275 275 275 275 275 275 275 275 275 275 275 275 276 276 276 276 276 276 277 277 278 279 280 281
272 271 271 270 269 269 268 269 269 268 267 267 266 266 266 266 266 266 266 266 265 265 265 265 265 265 266 266 266 266 267 267 267 268 268 269 269 270 271 271 272 272 272 273 273 274 275 275 276 276 276 276 276 276 276 275 275 275 275 275 276 276 276 276 276 276 276 277 277 277 277 278 279 281
271 271 270 269 268 267 267 267 267 267 267 266 266 266 266 266 266 265 265 265 265 265 265 265 265 265 266 266 266 267 267 267 268 268 268 269 269 270 270 270 271 271 272 272 273 274 275 275 276 276 276 276 276 276 276 276 276 276 276 276 276 276 276 276 276 277 277 277 277 277 278 278 279 280
271 270 269 268 267 267 267 267 266 266 266 266 266 266 265 265 265 265 265 265 265 265 265 265 265 265 266 266 267 267 267 267 267 268 268 268 269 269 269 270 270 270 271 272 272 273 274 275 275 276 276 276 276 276 276 276 276 276 276 276 276 276 277 277 277 277 277 277 277 277 278 278 279 280
270 269 268 267 267 267 266 266 266 266 266 265 265 265 265 265 265 265 265 265 265 265 265 265 265 265 266 267 267 267 267 267 267 267 268 268 268 268 269 269 269 270 270 271 272 273 273 274 275 276 276 276 277 277 277 277 277 277 277 277 277 277 277 277 277 277 277 278 278 278 278 279 279 280
269 268 267 266 266 266 266 266 266 265 265 265 264 264 264 265 265 264 264 264 264 264 264 265 265 266 266 267 267 267 267 267 267 267 268 268 268 268 268 269 269 270 270 271 271 272 273 273 274 275 276 277 277 277 278 278 278 278 278 277 278 278 278 278 278 278 278 278 278 279 279 279 280 280
268 267 266 266 266 266 266 265 265 265 264 264 264 264 264 264 264 264 264 264 264 264 264 265 266 266 267 267 267 267 267 267 267 267 268 268 268 268 268 269 269 269 270 270 271 271 272 273 273 275 276 276 276 277 278 278 279 279 279 279 279 279 279 279 279 278 278 278 278 279 279 280 280 281
267 266 266 266 266 265 265 265 264 264 264 264 263 263 263 264 264 264 264 264 264 264 264 265 266 266 267 267 267 267 267 267 267 268 268 268 268 268 268 268 269 269 269 270 270 271 271 272 273 274 275 276 276 277 278 278 279 279 279 279 279 279 280 279 279 279 279 279 279 280 280 280 281 281
266 266 265 265 265 265 265 264 264 264 264 263 263 263 263 263 263 263 263 263 263 264 264 265 266 266 266 267 267 267 267 267 268 268 268 268 268 268 268 268 269 269 269 270 270 271 271 272 273 273 274 275 276 276 277 277 277 278 278 279 279 280 280 280 279 279 280 280 280 280 281 281 281 282
265 265 265 265 265 265 264 264 264 264 263 263 263 263 263 263 263 263 263 263 263 264 264 265 265 266 266 266 267 267 267 267 267 267 267 268 268 268 268 268 269 269 269 270 270 271 271 272 272 273 274 274 275 275 275 276 277 278 279 279 280 281 281 281 280 280 280 281 281 282 282 282 282 282
265 265 265 265 265 264 264 264 264 264 263 263 263 263 262 262 262 262 263 263 263 264 264 265 265 265 266 266 266 267 267 267 267 267 267 268 268 268 268 268 269 269 269 270 270 270 271 271 272 272 273 274 275 275 276 277 278 279 279 280 281 281 282 282 281 281 281 281 282 282 283 283 283 283
264 264 265 265 265 264 264 264 264 264 263 263 263 263 262 262 262 262 262 263 263 263 264 265 265 265 265 266 266 266 267 267 267 267 267 267 267 268 268 268 268 269 269 270 270 270 271 271 272 273 273 274 275 277 277 278 279 279 280 280 281 281 281 282 282 281 281 281 281 281 282 282 283 283
264 264 264 264 264 264 264 264 264 264 263 263 263 262 262 262 262 262 262 262 262 263 264 264 265 265 265 265 265 266 266 267 267 267 267 267 267 267 267 268 268 268 269 269 270 270 271 272 272 273 274 275 276 277 277 278 278 279 279 280 280 280 280 280 281 281 281 280 280 280 280 281 281 282
264 264 264 264 264 264 264 264 264 263 263 263 263 262 262 261 261 261 262 262 262 262 263 264 264 264 264 265 265 265 266 267 267 267 267 267 267 267 267 267 268 268 269 269 270 271 271 272 273 273 274 274 275 276 277 277 277 278 278 279 279 279 279 279 279 280 280 279 279 279 279 280 280 280
264 264 264 264 264 264 264 264 264 263 263 263 262 262 262 261 261 261 262 262 262 262 262 263 263 264 264 264 264 265 266 266 266 266 266 266 267 267 267 267 268 268 268 269 270 271 272 272 272 272 273 274 274 275 276 276 277 277 277 277 277 277 277 277 278 278 278 278 278 278 279 279 279 279
Wind_Speed
14 13 14 14 11 8 9 10 9 9 9 9 9 9 10 10 8 7 7 7 12 19 22 23 27 29 29 32 35 33 31 30 29 30 31 30 30 30 29 28 28 29 33 35 35 35 34 35 35 35 35 34 34 35 34 34 34 33 32 31 30 30 29 29 29 30 33 35 35 32 31 33 33 32
15 14 15 14 12 10 10 11 11 10 10 10 10 10 10 11 10 10 9 9 13 18 20 22 25 28 32 34 38 39 36 34 32 30 31 30 29 29 28 29 31 32 32 32 32 33 34 34 34 34 35 35 35 35 35 35 35 35 34 33 32 30 29 29 28 29 30 32 35 36 34 34 33 33
15 15 14 13 12 11 12 12 11 11 11 11 12 11 12 12 12 13 12 10 16 21 21 25 26 24 26 28 30 35 36 36 34 31 30 30 31 32 33 32 30 29 29 29 29 30 31 32 33 34 34 35 35 35 35 35 35 36 36 35 34 32 31 30 29 29 30 30 31 34 37 37 34 33
14 14 14 13 12 12 13 13 12 12 12 12 13 13 13 14 13 15 14 12 20 28 27 27 27 23 24 25 24 27 30 30 30 31 32 33 34 34 34 32 28 26 27 28 28 29 29 30 32 33 33 33 34 34 34 35 35 36 36 36 35 34 33 32 31 30 30 30 30 31 34 37 37 34
12 13 14 13 11 11 13 14 14 13 13 13 14 13 13 15 13 14 16 15 20 30 32 29 28 23 23 25 22 20 24 26 27 31 34 35 34 32 31 31 30 28 27 27 27 28 29 29 30 31 31 32 32 32 33 34 35 36 36 37 37 36 35 34 32 31 30 31 30 29 30 33 36 36
12 12 12 12 10 11 13 15 14 13 13 12 13 13 13 15 15 14 16 17 18 26 32 32 30 25 22 23 23 21 24 28 27 27 31 32 31 30 30 31 32 31 29 28 27 27 28 29 29 30 30 31 32 32 32 32 33 35 36 37 37 37 37 36 34 33 31 31 31 31 30 31 32 34
12 12 11 10 10 11 13 14 13 12 12 12 12 14 14 15 17 15 15 17 18 22 29 31 29 26 22 23 26 25 25 28 27 26 27 28 29 31 31 31 31 29 27 27 27 27 27 28 28 29 30 31 32 33 32 31 32 34 36 37 37 37 37 37 35 34 32 31 31 31 31 31 32 32
11 11 10 10 10 12 12 12 12 11 11 12 13 15 15 14 16 16 14 16 18 20 26 30 28 26 23 24 26 26 25 26 26 25 26 28 30 31 31 28 27 26 26 28 29 29 28 28 27 28 29 31 32 33 33 32 32 33 34 35 36 36 36 36 35 35 34 32 31 31 31 31 32 34
11 10 10 11 11 11 12 12 12 12 12 14 14 14 15 14 15 16 15 16 17 19 24 29 29 26 24 23 24 24 24 25 25 25 26 28 29 28 27 27 27 28 29 28 27 27 27 27 27 27 28 29 30 31 32 32 32 32 32 33 35 36 36 36 36 36 35 33 31 32 32 31 32 35
11 11 11 11 11 11 12 12 12 13 13 14 14 14 15 15 15 16 16 15 17 19 22 25 28 27 24 23 24 23 22 24 26 26 26 25 24 25 27 29 29 28 27 26 26 28 29 29 29 29 29 29 30 30 31 33 33 33 32 32 34 35 36 37 37 37 36 35 33 32 33 33 32 34
11 11 11 11 12 11 12 12 13 15 16 15 14 14 14 14 15 15 16 15 16 19 21 22 24 26 25 23 23 23 23 23 23 23 25 24 23 24 26 28 28 28 29 30 29 28 28 29 29 29 29 27 26 27 27 28 30 31 32 31 31 32 33 34 36 37 37 37 35 33 32 33 33 33
11 12 12 12 12 12 12 14 17 18 17 15 14 14 13 14 14 15 15 15 16 18 20 21 22 24 25 23 22 23 23 22 21 20 23 24 25 25 26 26 27 28 30 31 29 26 24 25 26 26 28 28 28 29 29 28 28 28 28 28 28 28 28 29 31 33 34 35 35 34 33 33 34 33
12 12 13 13 13 14 16 18 19 18 15 14 14 14 13 13 14 15 15 15 16 18 19 21 21 22 24 22 22 22 22 22 23 22 23 24 24 24 26 25 24 25 27 29 29 27 24 25 27 27 28 30 29 31 32 31 30 28 26 26 25 25 25 25 25 27 28 30 31 31 31 32 33 34
13 12 14 15 16 17 19 19 17 15 14 14 14 14 14 14 15 16 16 16 17 18 19 20 20 21 23 22 22 23 23 24 25 23 22 22 23 23 24 24 22 22 24 27 30 29 26 27 30 28 28 29 28 28 29 29 29 29 29 29 28 27 27 27 26 27 28 29 29 30 30 30 32 33
13 13 14 16 17 18 18 17 16 15 15 15 15 15 15 15 15 15 17 17 17 18 19 20 20 21 24 24 24 24 25 25 24 23 22 22 24 23 20 20 20 21 24 28 33 33 29 28 30 30 28 28 27 27 27 27 27 28 30 31 31 31 31 30 30 31 31 31 31 32 33 32 31 32
14 15 15 16 17 18 17 17 18 16 15 14 14 15 15 15 15 15 17 18 19 19 20 21 22 23 26 28 26 24 25 25 25 24 24 23 24 24 22 23 25 25 26 30 34 35 30 26 29 31 28 27 27 26 26 26 27 27 28 29 30 31 32 32 32 32 32 32 32 32 34 33 32 31
15 16 16 16 16 16 15 15 15 15 15 15 15 15 15 15 15 16 18 20 21 23 24 26 26 26 27 29 28 26 26 27 27 27 26 25 25 26 26 27 29 30 30 30 33 34 29 25 29 31 28 27 28 28 27 26 26 27 28 29 30 31 31 31 32 32 31 31 31 31 31 32 33 32
17 17 16 15 16 15 14 14 14 14 16 16 16 17 17 19 20 21 23 24 24 26 28 30 31 30 29 30 31 30 29 29 29 29 29 28 27 29 31 33 35 36 33 29 28 28 26 25 29 32 29 27 28 28 27 26 26 27 28 30 31 32 31 31 31 31 31 31 31 31 31 31 32 33
16 15 15 15 16 16 15 14 14 16 17 18 20 23 25 28 29 29 30 30 31 32 32 32 33 33 33 35 36 36 35 34 34 34 35 35 34 36 38 37 36 33 29 25 24 24 25 25 28 31 30 29 30 29 27 26 26 27 28 30 32 32 31 31 31 31 31 31 31 31 31 31 31 32
13 13 14 15 15 16 16 15 16 17 18 20 24 27 29 31 32 34 36 35 34 35 35 34 33 34 36 38 40 40 38 38 38 39 40 38 36 35 32 28 26 24 23 22 22 24 25 24 27 31 30 30 31 29 27 26 25 26 29 30 30 29 28 29 30 31 32 32 32 31 31 31 31 31
12 12 13 14 15 16 17 17 18 19 20 22 26 28 30 32 33 35 37 36 32 31 32 33 34 36 38 39 40 39 38 37 37 36 34 31 29 28 22 19 21 24 23 21 21 23 25 24 27 30 30 30 30 28 27 27 25 25 25 25 26 27 28 30 30 30 30 30 30 31 30 30 31 31
12 12 13 14 16 17 17 18 19 20 21 24 27 29 31 31 31 30 30 29 27 27 29 32 34 35 35 36 36 36 34 33 33 32 32 30 29 27 22 20 23 23 22 21 20 21 23 23 24 27 28 28 29 26 26 25 23 23 24 26 28 28 30 31 31 30 29 28 28 29 29 30 30 30
12 13 14 15 16 17 18 19 20 21 23 26 29 29 29 28 28 27 27 28 29 30 31 31 31 31 30 30 30 30 30 31 30 31 32 31 29 28 26 24 21 16 15 19 20 20 21 21 22 24 21 19 19 21 22 22 22 25 27 29 28 27 27 28 29 30 31 30 29 29 29 29 29 29
13 14 14 14 14 16 18 19 21 23 24 27 29 29 27 27 28 29 30 30 30 30 29 29 29 29 29 29 30 30 30 30 30 29 29 29 29 29 28 25 21 16 16 21 22 22 23 22 22 23 19 15 15 19 23 25 26 26 26 27 27 26 26 27 29 30 31 31 30 30 30 29 28 28
14 14 14 14 14 16 18 20 23 25 25 27 28 27 25 26 27 29 30 29 27 26 27 26 26 27 27 27 26 26 26 27 27 27 27 27 28 29 28 26 23 22 23 24 24 23 24 23 21 22 22 21 22 24 25 26 27 27 26 27 28 27 27 27 29 30 30 30 30 29 29 29 28 27
14 15 15 14 15 16 19 22 24 25 26 26 25 23 23 24 25 26 26 25 23 22 22 22 23 23 23 23 22 22 22 23 23 24 25 26 27 28 29 28 27 26 25 25 23 23 24 24 22 22 22 22 23 24 24 24 25 27 26 26 26 26 26 27 29 29 28 29 30 29 29 30 30 30
14 15 14 14 15 18 21 23 24 24 24 23 21 21 22 22 22 22 20 19 18 19 19 20 20 21 21 21 21 21 21 22 23 24 25 26 27 28 28 29 30 30 30 28 26 26 27 27 26 24 24 23 21 19 19 22 24 25 26 26 26 26 26 27 28 28 28 29 30 31 31 32 32 31
15 14 14 15 17 20 22 23 23 24 23 21 19 19 20 20 19 18 17 16 16 17 18 18 19 20 20 21 21 22 23 24 26 27 27 27 28 29 30 31 32 33 34 32 31 30 31 31 30 28 27 26 23 17 17 21 25 25 26 26 26 26 26 26 27 28 28 29 30 31 32 32 31 30
14 13 14 16 19 20 22 23 24 24 22 18 17 17 17 17 17 16 15 15 15 16 16 17 18 20 21 21 22 24 25 26 27 27 27 27 28 28 29 30 31 32 32 33 32 31 32 33 33 32 29 28 27 23 22 24 26 26 25 26 27 29 29 27 28 29 28 28 28 30 32 32 30 29
14 14 16 18 19 20 20 21 22 21 18 16 16 15 15 15 15 15 15 15 15 15 16 18 19 20 22 23 24 24 24 25 25 25 25 26 26 26 27 28 29 29 28 28 29 29 31 33 32 30 28 27 27 28 27 26 26 25 26 27 27 28 28 27 27 27 27 28 29 29 31 32 32 31
15 17 18 19 20 20 19 19 19 18 16 15 15 15 15 16 15 14 14 15 15 15 16 18 19 21 22 23 24 24 23 23 24 24 24 25 25 26 26 26 27 27 27 26 26 27 29 30 30 30 29 27 27 28 29 28 27 27 29 31 29 26 27 29 29 29 29 29 30 30 30 31 32 31
15 17 19 21 21 19 18 18 17 16 15 15 15 15 15 16 15 15 14 14 14 15 16 18 20 21 22 22 23 24 24 24 25 25 24 24 25 26 25 24 25 26 26 25 25 24 25 28 29 30 30 29 29 30 29 28 28 28 29 32 32 30 30 31 31 32 31 29 29 30 30 31 32 31
14 15 18 20 18 15 15 15 14 14 14 15 16 16 15 15 16 15 15 15 16 16 17 18 19 20 21 22 23 23 23 24 25 25 24 25 25 25 24 23 24 25 26 25 24 24 24 26 27 28 30 31 32 33 30 27 27 29 31 32 31 31 31 31 30 31 29 27 27 28 28 30 31 31
14 16 17 16 14 13 13 13 12 13 14 16 18 18 16 16 16 16 16 15 16 16 17 18 19 20 20 21 22 22 23 24 25 25 24 24 25 24 23 23 23 24 25 25 24 24 25 26 26 27 29 30 32 33 33 30 29 31 34 34 32 32 32 32 31 30 28 28 28 27 26 28 30 30
16 16 15 15 13 12 12 12 12 12 13 15 17 19 19 18 17 16 17 16 16 18 19 19 19 19 20 21 22 22 23 24 25 25 24 24 24 23 22 23 23 24 24 24 24 25 25 25 25 24 24 23 23 25 28 31 33 33 33 33 34 34 34 33 31 29 27 26 27 26 24 25 27 29
16 16 15 15 13 12 12 12 12 12 13 15 16 17 19 20 18 17 17 18 18 19 19 19 19 20 20 21 22 23 23 23 24 25 25 24 24 23 23 23 23 24 24 24 24 25 25 25 25 21 16 12 11 12 18 26 30 31 31 32 33 32 32 32 31 28 26 25 26 25 23 22 25 28
16 16 16 15 14 13 13 13 12 12 13 14 15 16 17 19 20 20 19 19 19 18 17 18 19 20 21 22 23 23 24 23 23 24 24 24 24 23 23 23 23 24 24 24 25 25 24 23 24 20 14 9 8 9 14 23 28 28 28 30 31 31 31 29 27 25 25 25 26 27 26 24 26 28
17 17 16 16 15 14 13 13 13 13 13 14 15 16 16 18 20 21 20 19 18 17 18 18 19 20 21 22 22 23 23 23 23 24 23 23 23 23 22 23 24 24 25 25 25 25 24 23 23 21 16 11 8 8 11 16 23 29 29 26 28 33 33 28 24 24 25 24 25 27 28 28 30 32
18 18 18 17 16 14 14 13 13 13 14 14 14 15 16 17 19 20 20 19 18 17 18 18 20 21 21 22 22 23 23 23 23 23 23 24 24 23 23 24 24 24 25 25 25 25 24 22 21 21 20 15 13 16 19 19 25 36 40 34 31 34 34 29 24 23 24 24 24 25 27 29 31 32
19 19 19 18 16 15 14 14 13 14 14 14 15 15 16 17 18 19 19 19 18 18 18 18 19 20 21 22 22 22 23 23 23 23 24 24 24 24 24 24 24 24 23 23 24 24 23 23 22 24 26 27 29 34 36 31 29 36 40 36 30 27 29 29 29 26 23 22 22 21 21 22 23 25
19 19 19 18 17 16 15 14 14 14 14 15 16 16 16 17 18 19 19 19 18 18 19 19 19 20 21 22 22 22 22 23 23 24 24 24 24 25 26 25 24 23 21 21 23 24 25 27 29 31 32 34 36 34 26 18 17 22 27 29 26 19 18 21 23 22 17 14 14 14 15 17 17 17
20 20 19 18 17 17 16 15 14 14 15 15 16 16 16 17 18 18 18 18 18 18 18 19 19 20 20 21 21 22 22 22 23 24 25 25 25 25 25 24 23 22 22 22 23 26 30 32 33 32 31 31 28 20 11 7 10 15 21 26 22 13 9 9 9 7 6 7 8 9 10 10 10 8
21 20 20 19 18 18 17 16 15 15 15 16 16 16 17 18 19 18 18 18 18 18 18 19 19 19 20 20 21 22 22 22 23 25 26 26 25 24 24 24 24 24 24 24 26 30 32 31 29 28 27 26 22 16 12 12 14 16 19 21 16 8 5 6 5 3 4 5 5 7 8 6 4 3
21 21 20 19 19 19 18 17 16 16 16 16 17 17 18 18 19 20 19 19 19 19 19 19 19 19 19 20 21 22 22 21 23 25 26 25 25 24 24 25 25 25 25 25 27 29 28 27 26 25 24 23 22 19 16 15 16 16 17 17 12 7 6 5 4 5 6 6 7 8 8 7 6 5
21 21 20 20 20 20 19 18 17 17 17 17 18 18 19 19 20 22 21 20 19 19 19 20 19 19 19 19 21 22 22 22 23 25 25 24 24 24 24 24 25 24 24 24 25 26 26 25 25 24 22 21 22 20 18 17 17 15 14 13 10 8 6 5 4 5 7 8 11 12 11 9 7 6
Wind_Direction
360 355 355 357 349 332 326 327 324 316 308 303 301 300 302 303 304 306 308 304 302 308 311 309 311 314 314 313 312 312 310 307 306 307 305 303 302 302 302 299 297 297 299 302 304 304 303 301 300 298 296 293 291 290 289 288 287 288 290 290 288 284 280 280 279 274 267 262 260 259 257 254 249 244
355 355 355 353 347 334 327 328 328 321 311 304 301 297 295 294 289 291 300 297 292 299 303 299 301 307 309 310 311 311 312 311 309 309 308 306 304 302 299 296 296 296 295 295 298 300 301 300 300 298 297 295 292 290 288 286 284 284 285 285 286 286 282 279 278 278 275 269 263 258 256 255 253 247
351 352 351 348 341 333 330 330 328 321 312 306 303 299 294 290 285 285 289 289 292 297 299 298 300 303 303 303 305 305 308 310 310 312 311 309 307 304 302 299 295 293 292 291 290 292 294 296 298 299 299 297 294 290 287 285 283 282 281 281 281 282 283 281 277 275 275 274 269 262 257 254 253 250
347 345 344 341 336 331 330 329 323 318 315 310 306 302 297 293 289 287 283 279 290 295 297 297 301 305 304 302 301 300 303 306 308 310 310 309 309 308 307 304 299 294 291 290 289 288 288 290 294 297 298 298 296 293 289 285 283 281 279 278 278 278 280 280 278 275 273 273 273 268 261 256 253 250
340 337 337 335 330 326 325 325 323 318 313 309 305 302 298 293 291 290 287 283 289 295 299 300 301 307 309 306 306 306 305 304 306 307 308 310 311 310 308 307 304 301 295 291 290 288 288 289 290 292 293 293 292 290 290 287 284 281 279 277 276 275 276 277 277 276 272 270 271 270 267 260 253 251
331 330 331 328 322 319 321 323 322 314 307 303 300 298 296 293 292 292 291 289 289 293 299 302 303 308 312 308 310 314 309 306 307 307 307 308 309 308 307 306 305 304 301 297 294 292 291 290 288 288 289 290 288 287 287 286 283 281 279 277 276 275 274 274 275 275 273 270 268 268 267 261 253 251
326 325 323 318 313 313 317 319 314 307 303 300 297 296 295 292 292 294 291 288 288 292 296 300 304 309 313 310 309 312 310 307 308 308 306 306 305 305 305 304 303 303 304 304 303 299 296 292 289 288 287 287 288 288 287 285 284 283 281 278 277 275 275 274 273 273 273 270 268 267 268 262 252 249
320 319 315 311 309 310 312 310 305 301 300 299 297 297 296 294 294 296 294 289 289 292 294 297 301 306 311 310 309 311 311 307 308 308 307 305 304 304 305 304 304 306 308 307 305 303 301 297 292 290 288 287 287 287 287 286 285 284 283 281 279 277 276 275 273 272 272 271 267 264 266 264 255 250
314 313 310 306 305 308 307 304 301 299 298 299 299 297 298 299 298 298 297 293 291 291 292 295 301 305 309 310 309 312 313 311 309 308 305 304 304 306 307 306 306 308 309 307 305 304 304 302 299 295 293 291 288 287 287 287 287 285 283 281 280 279 278 277 274 272 272 271 268 263 262 263 259 252
307 306 304 300 299 302 301 300 300 300 300 301 301 301 301 302 301 301 300 299 297 294 293 296 301 305 309 311 310 311 313 311 309 309 307 305 306 308 308 306 308 310 308 305 303 302 301 300 300 300 299 295 292 289 287 287 287 287 285 283 281 281 280 278 276 274 272 271 269 266 261 261 260 256
301 299 298 297 298 299 296 295 298 301 303 303 301 302 304 304 305 304 303 303 301 298 296 296 299 302 306 308 308 308 310 307 304 306 308 308 308 309 306 306 308 309 307 304 302 301 299 298 298 300 300 299 298 297 295 293 290 289 290 289 286 284 282 279 276 274 273 271 270 269 265 261 260 258
298 299 301 299 297 295 291 293 299 302 302 301 300 301 303 304 304 303 303 304 301 299 297 296 298 300 302 304 306 307 308 306 304 306 307 305 306 306 304 304 306 307 306 305 306 307 307 306 305 303 301 300 300 298 297 297 296 294 294 292 289 289 287 283 279 276 275 273 272 271 269 264 260 259
294 297 301 299 295 294 295 300 305 305 298 292 293 297 299 300 300 299 300 300 299 297 294 294 297 298 298 302 305 305 305 304 303 306 304 301 302 305 304 302 304 305 305 306 307 308 311 310 307 304 301 300 300 297 294 292 291 289 291 292 290 290 289 286 283 280 279 277 275 272 270 267 262 259
290 292 297 297 297 299 302 305 307 302 292 287 286 288 291 293 294 296 297 296 295 294 291 292 296 296 295 297 300 299 299 299 299 301 302 301 303 305 303 301 303 305 306 307 305 306 309 309 305 302 301 300 300 298 294 291 287 284 284 286 288 288 287 285 283 282 282 281 279 276 273 270 266 261
289 288 291 295 299 302 304 304 303 297 293 291 287 286 287 285 285 288 290 291 290 288 288 289 291 291 291 292 293 293 295 295 294 296 298 298 300 302 300 300 303 305 307 307 303 302 306 305 301 300 300 300 299 296 293 291 290 288 285 285 285 286 285 284 284 283 282 281 280 279 278 274 270 265
287 287 290 293 297 302 303 303 304 302 297 292 290 291 290 284 280 279 280 284 285 284 284 284 284 284 285 287 288 288 289 290 290 291 291 291 292 292 293 294 296 301 306 305 300 299 302 303 299 297 298 298 296 293 291 291 291 291 290 289 288 287 286 285 284 283 281 280 279 279 279 276 273 269
282 286 291 292 294 299 300 299 300 298 296 295 294 295 292 284 278 273 274 278 281 281 280 278 277 277 278 281 283 282 283 285 287 288 286 286 286 285 286 287 289 296 301 299 294 294 298 301 297 294 296 298 296 293 292 292 292 292 293 293 292 290 288 286 285 284 282 280 278 277 276 275 274 273
281 285 288 289 291 295 293 292 293 294 295 296 294 293 290 285 281 277 277 279 279 278 276 273 272 273 274 275 278 279 279 279 280 281 282 283 283 282 282 282 285 291 292 289 288 290 296 300 296 293 296 298 295 295 295 294 293 292 292 293 293 291 288 286 286 285 283 282 280 278 276 275 275 274
282 283 284 285 288 290 289 289 292 295 296 295 293 292 291 290 290 287 286 286 284 284 280 271 267 269 271 274 277 279 278 276 275 277 278 281 282 281 281 280 281 285 287 285 286 287 293 299 294 291 296 298 296 296 297 296 295 293 292 293 293 293 291 287 286 285 284 283 282 280 277 275 275 274
278 278 281 283 285 286 288 289 292 295 297 296 295 295 294 294 293 290 290 289 284 282 280 274 272 275 277 278 281 283 282 279 279 279 277 277 278 277 277 278 280 285 291 291 288 286 291 296 293 292 296 298 296 297 297 297 298 296 295 293 293 296 296 293 291 288 285 283 281 280 278 275 274 274
275 274 277 280 284 286 288 291 295 298 300 299 297 297 295 293 291 289 292 292 284 278 280 283 288 292 290 287 287 289 289 287 287 287 283 281 281 278 277 281 285 290 292 291 287 285 288 292 292 292 296 295 294 297 298 298 299 298 299 300 300 301 301 300 298 294 289 285 281 279 278 276 276 275
275 275 277 279 283 286 289 294 300 303 303 301 299 297 296 295 294 295 300 301 296 291 292 293 294 294 293 291 290 291 291 290 291 289 286 286 285 280 278 282 288 288 286 286 286 282 283 288 291 294 297 295 292 294 297 297 298 299 302 304 304 302 301 301 301 300 295 289 284 282 279 278 278 277
278 280 284 285 285 288 293 299 303 305 305 304 304 305 305 303 303 304 307 307 305 303 301 299 296 294 294 293 291 290 289 288 286 284 282 282 282 278 277 281 287 287 282 284 286 283 283 288 289 292 297 295 292 294 296 296 297 299 300 300 300 299 298 300 302 302 299 293 287 284 282 279 278 276
285 286 288 289 290 293 298 302 305 307 308 308 309 310 308 303 303 306 307 306 305 304 303 300 298 296 294 292 290 288 286 285 283 281 279 279 278 277 277 278 277 275 278 285 286 284 284 284 284 286 287 285 291 297 296 295 297 298 298 297 297 297 296 296 297 298 297 295 290 285 282 281 278 275
285 287 290 291 293 298 302 305 308 309 310 310 310 307 302 300 303 307 309 308 306 304 302 300 298 298 297 295 293 291 288 286 285 283 281 279 277 276 278 279 278 275 277 282 284 284 284 284 284 286 284 281 285 292 295 295 295 294 294 293 292 294 295 295 295 295 294 295 292 286 282 280 278 275
279 285 289 292 295 301 305 308 309 310 311 311 308 304 303 305 308 310 309 308 307 305 303 302 301 301 301 301 299 297 294 292 290 288 285 282 280 278 278 279 281 280 280 283 285 284 284 283 282 284 284 281 284 289 291 292 292 292 292 290 288 290 292 292 293 293 293 293 291 288 284 281 278 275
277 284 287 291 298 304 307 309 311 312 313 311 308 307 309 312 313 314 311 308 307 306 305 303 302 302 303 304 303 301 300 298 296 293 290 287 285 283 280 279 279 280 282 284 283 281 280 279 278 277 277 279 283 286 285 286 289 291 290 288 288 288 287 287 287 288 289 289 289 288 286 282 278 274
275 280 285 293 300 305 307 310 311 312 312 312 309 311 313 314 315 314 312 311 311 308 306 305 305 305 305 304 303 303 303 302 299 295 292 290 287 285 283 281 280 280 280 280 278 275 273 273 273 273 272 273 275 277 279 282 284 286 287 289 289 286 285 284 283 283 285 285 286 286 285 281 278 275
270 276 285 295 302 305 308 312 313 313 314 313 310 310 313 315 316 315 314 313 311 308 306 306 305 304 305 304 304 304 304 302 300 298 296 295 292 289 287 286 284 283 281 279 276 273 270 268 269 271 270 268 267 268 272 277 279 280 282 285 285 285 285 283 280 280 282 282 282 281 280 277 275 273
265 273 286 295 300 302 306 309 309 309 310 311 311 313 318 321 318 315 313 312 310 306 306 305 303 303 304 305 305 306 306 303 301 301 301 300 299 297 296 293 290 287 285 282 279 276 273 270 268 268 268 267 266 266 268 272 275 277 277 276 277 281 283 282 280 279 279 281 281 279 277 275 274 272
262 272 283 291 296 300 306 309 310 309 310 313 316 318 324 327 323 315 311 308 304 302 302 303 303 303 304 306 306 306 306 304 303 303 303 301 300 301 300 297 294 292 291 288 284 279 274 272 269 268 268 267 267 268 268 270 272 275 275 273 271 273 277 279 280 278 277 278 278 277 277 276 274 272
264 274 285 293 300 305 310 313 315 314 312 312 314 317 323 328 327 320 315 311 307 305 304 304 305 306 306 306 306 306 305 304 305 305 304 301 300 302 301 298 296 297 296 295 292 286 279 275 272 271 269 268 268 270 270 268 268 270 273 274 272 271 272 274 273 274 276 276 273 271 273 274 273 271
266 280 291 297 300 303 305 308 310 310 309 311 315 319 322 324 325 324 321 317 315 313 310 308 307 307 306 305 306 307 306 305 306 307 306 303 302 302 301 297 296 297 298 298 298 295 290 284 280 277 275 272 270 269 266 265 267 268 270 273 274 273 273 271 268 269 272 272 269 269 269 270 270 269
270 285 291 291 290 292 296 299 300 302 306 311 315 319 320 321 324 325 322 318 316 314 312 309 306 304 304 304 306 308 307 307 309 309 307 306 304 303 300 297 297 297 298 298 299 298 296 293 290 285 281 277 274 270 264 259 262 267 269 271 272 272 273 272 268 266 267 266 265 266 267 267 268 269
273 283 282 279 279 283 287 287 289 296 302 306 311 316 320 322 323 323 321 319 316 313 312 309 305 303 303 304 306 307 307 307 309 309 309 307 304 301 299 297 297 297 297 297 298 300 301 300 296 291 285 281 278 275 269 262 259 261 266 269 270 269 271 273 270 266 264 263 261 261 261 262 264 266
271 275 271 268 271 274 276 278 282 290 298 303 307 311 315 319 320 319 318 318 317 314 311 306 303 303 305 306 306 307 307 307 308 309 309 307 305 303 300 298 297 297 297 297 298 301 302 301 300 296 289 283 280 279 280 278 270 261 258 263 268 269 271 273 273 267 261 258 257 258 259 260 260 262
267 267 262 261 264 266 269 274 281 287 294 300 304 304 307 313 316 317 318 319 318 315 310 304 302 303 306 307 307 307 307 307 307 307 307 306 305 303 301 300 300 299 298 297 298 298 298 298 299 297 292 290 290 284 286 290 288 277 263 258 264 273 276 275 272 266 259 255 253 253 256 259 260 260
262 259 255 257 262 263 267 273 280 287 291 295 299 302 303 307 312 316 319 319 317 314 310 305 304 305 306 307 307 307 307 308 306 306 307 306 305 303 301 301 300 299 299 298 298 298 297 295 294 293 290 288 287 289 293 297 299 294 284 270 267 276 280 275 266 261 260 256 253 252 254 255 258 261
260 254 251 255 260 262 268 274 278 284 289 292 295 299 302 305 309 313 315 316 315 313 309 304 303 305 307 308 308 306 306 306 306 306 307 306 304 302 301 300 300 301 301 299 298 298 298 295 293 293 293 291 293 298 300 298 294 293 293 290 282 277 275 270 261 257 258 258 256 257 257 257 258 260
256 252 252 257 261 263 268 275 280 286 289 291 292 296 301 304 307 308 310 311 312 310 304 301 302 304 306 307 309 307 305 306 307 306 306 305 304 303 303 302 302 302 301 299 300 300 299 297 297 297 296 294 293 292 289 284 283 285 289 295 294 282 272 266 258 253 256 260 261 262 261 259 259 258
250 250 253 258 262 265 269 275 280 286 288 291 295 299 301 301 303 305 306 306 306 306 302 300 301 303 304 306 308 308 306 307 308 308 308 307 306 306 306 305 304 303 301 300 300 300 299 300 302 301 299 295 293 290 283 277 279 282 287 296 302 295 284 277 264 253 258 276 287 288 279 269 264 257
247 250 255 259 263 267 271 275 281 285 288 292 296 298 299 299 300 302 303 304 307 306 302 299 299 301 303 306 308 308 306 306 308 310 310 309 308 307 308 307 305 304 303 301 299 299 301 304 305 305 303 299 295 291 284 277 285 289 294 300 303 299 302 310 296 271 281 315 335 335 317 294 273 255
249 253 257 261 265 267 270 276 281 284 288 293 295 297 298 299 299 299 301 304 307 306 301 299 299 300 301 304 308 308 305 304 308 312 311 310 309 307 307 306 306 305 304 302 301 302 303 305 307 309 308 304 299 295 293 295 297 298 301 305 307 306 313 328 336 332 325 335 356 3 354 341 333 337
253 257 260 262 265 268 271 276 280 284 288 292 294 296 296 295 295 297 299 302 305 304 301 299 298 297 299 304 308 307 304 305 310 314 313 310 310 309 307 307 306 306 306 306 306 306 307 310 314 315 311 306 303 301 300 301 300 297 298 304 314 325 327 326 331 332 335 353 10 9 3 358 355 356
256 259 262 264 266 268 272 276 280 284 287 289 291 294 294 292 292 295 298 301 303 303 300 297 296 295 298 303 307 306 304 306 313 316 314 311 311 310 309 309 308 308 309 308 308 309 312 316 318 318 313 308 308 307 305 302 300 300 308 319 332 345 349 354 2 358 5 26 36 36 36 34 28 25